status,avgMeasuredTime,avgSpeed,extID,medianMeasuredTime,TIMESTAMP,vehicleCount,_id,REPORT_ID
OK,118,24,1023,118,2014-08-01T08:00:00,1,20747078,201775
OK,118,24,1023,118,2014-08-01T08:10:00,0,20747900,201775
OK,104,27,1023,104,2014-08-01T08:15:00,1,20748349,201775
OK,104,27,1023,104,2014-08-01T08:20:00,1,20748798,201775
OK,104,27,1023,104,2014-08-01T08:25:00,0,20749247,201775
OK,104,27,1023,104,2014-08-01T08:30:00,0,20749696,201775
OK,104,27,1023,104,2014-08-01T08:40:00,0,20750594,201775
OK,127,22,1023,127,2014-08-01T08:50:00,0,20751492,201775
OK,127,22,1023,127,2014-08-01T09:00:00,0,20752390,201775
OK,127,22,1023,127,2014-08-01T09:05:00,0,20752839,201775
OK,127,22,1023,127,2014-08-01T09:10:00,0,20753288,201775
OK,71,40,1023,71,2014-08-01T09:20:00,2,20754186,201775
OK,82,35,1023,82,2014-08-01T09:25:00,2,20754635,201775
OK,95,30,1023,95,2014-08-01T09:30:00,1,20755084,201775
OK,95,30,1023,95,2014-08-01T09:35:00,0,20755533,201775
OK,74,39,1023,74,2014-08-01T09:40:00,1,20755982,201775
OK,89,32,1023,89,2014-08-01T09:45:00,2,20756431,201775
OK,107,27,1023,107,2014-08-01T09:50:00,2,20756880,201775
OK,110,26,1023,110,2014-08-01T09:55:00,0,20757329,201775
OK,110,26,1023,110,2014-08-01T10:00:00,0,20757778,201775
OK,107,27,1023,107,2014-08-01T10:15:00,4,20759125,201775
OK,120,24,1023,120,2014-08-01T10:20:00,3,20759574,201775
OK,90,32,1023,90,2014-08-01T10:25:00,1,20760023,201775
OK,90,32,1023,90,2014-08-01T10:30:00,0,20760472,201775
OK,90,32,1023,90,2014-08-01T10:40:00,4,20761370,201775
OK,164,17,1023,164,2014-08-01T10:50:00,1,20762268,201775
OK,82,35,1023,82,2014-08-01T11:00:00,3,20763166,201775
OK,147,19,1023,147,2014-08-01T11:20:00,1,20764961,201775
OK,160,18,1023,160,2014-08-01T11:25:00,2,20765410,201775
OK,131,22,1023,131,2014-08-01T11:30:00,2,20765859,201775
OK,87,33,1023,87,2014-08-01T11:35:00,2,20766308,201775
OK,85,34,1023,85,2014-08-01T11:40:00,1,20766757,201775
OK,93,31,1023,93,2014-08-01T11:45:00,1,20767206,201775
OK,93,31,1023,93,2014-08-01T11:50:00,1,20767655,201775
OK,93,31,1023,93,2014-08-01T11:55:00,0,20768104,201775
OK,79,36,1023,79,2014-08-01T12:00:00,1,20768553,201775
OK,56,51,1023,56,2014-08-01T12:10:00,1,20769451,201775
OK,79,36,1023,79,2014-08-01T12:20:00,2,20770349,201775
OK,79,36,1023,79,2014-08-01T12:25:00,2,20770798,201775
OK,79,36,1023,79,2014-08-01T12:30:00,0,20771247,201775
OK,126,23,1023,126,2014-08-01T12:35:00,1,20771696,201775
OK,126,23,1023,126,2014-08-01T12:40:00,0,20772145,201775
OK,75,38,1023,75,2014-08-01T12:45:00,1,20772594,201775
OK,115,25,1023,115,2014-08-01T12:50:00,2,20773043,201775
OK,155,18,1023,155,2014-08-01T12:55:00,1,20773492,201775
OK,152,19,1023,152,2014-08-01T13:00:00,1,20773941,201775
OK,124,23,1023,124,2014-08-01T13:05:00,2,20774390,201775
OK,124,23,1023,124,2014-08-01T13:10:00,2,20774839,201775
OK,97,29,1023,97,2014-08-01T13:15:00,2,20775288,201775
OK,97,29,1023,97,2014-08-01T13:20:00,2,20775737,201775
OK,97,29,1023,97,2014-08-01T13:25:00,0,20776186,201775
OK,97,29,1023,97,2014-08-01T13:30:00,0,20776635,201775
OK,97,29,1023,97,2014-08-01T13:35:00,0,20777084,201775
OK,138,21,1023,138,2014-08-01T13:40:00,1,20777533,201775
OK,138,21,1023,138,2014-08-01T13:45:00,1,20777982,201775
OK,87,33,1023,87,2014-08-01T13:50:00,2,20778431,201775
OK,87,33,1023,87,2014-08-01T14:00:00,0,20779329,201775
OK,87,33,1023,87,2014-08-01T14:05:00,0,20779778,201775
OK,105,27,1023,105,2014-08-01T14:10:00,1,20780227,201775
OK,105,27,1023,105,2014-08-01T14:15:00,1,20780676,201775
OK,105,27,1023,105,2014-08-01T14:20:00,0,20781125,201775
OK,105,27,1023,105,2014-08-01T14:25:00,0,20781574,201775
OK,118,24,1023,118,2014-08-01T14:30:00,1,20782023,201775
OK,118,24,1023,118,2014-08-01T14:35:00,1,20782472,201775
OK,118,24,1023,118,2014-08-01T14:40:00,0,20782921,201775
OK,118,24,1023,118,2014-08-01T14:45:00,0,20783370,201775
OK,118,24,1023,118,2014-08-01T14:50:00,0,20783819,201775
OK,118,24,1023,118,2014-08-01T15:00:00,0,20784717,201775
OK,118,24,1023,118,2014-08-01T15:05:00,0,20785166,201775
OK,118,24,1023,118,2014-08-01T15:10:00,0,20785615,201775
OK,118,24,1023,118,2014-08-01T15:15:00,0,20786064,201775
OK,61,47,1023,61,2014-08-01T15:20:00,2,20786513,201775
OK,61,47,1023,61,2014-08-01T15:25:00,2,20786962,201775
OK,95,30,1023,95,2014-08-01T15:30:00,0,20787411,201775
OK,120,24,1023,120,2014-08-01T15:35:00,1,20787860,201775
OK,120,24,1023,120,2014-08-01T15:40:00,1,20788309,201775
OK,120,24,1023,120,2014-08-01T15:45:00,0,20788758,201775
OK,53,54,1023,53,2014-08-01T15:50:00,1,20789207,201775
OK,81,35,1023,81,2014-08-01T15:55:00,2,20789656,201775
OK,109,26,1023,109,2014-08-01T16:00:00,1,20790105,201775
OK,109,26,1023,109,2014-08-01T16:05:00,0,20790554,201775
OK,109,26,1023,109,2014-08-01T16:10:00,0,20791003,201775
OK,109,26,1023,109,2014-08-01T16:15:00,0,20791452,201775
OK,109,26,1023,109,2014-08-01T16:20:00,0,20791901,201775
OK,240,12,1023,240,2014-08-01T16:25:00,1,20792350,201775
OK,64,45,1023,64,2014-08-01T16:30:00,1,20792799,201775
OK,64,45,1023,64,2014-08-01T16:35:00,1,20793248,201775
OK,64,45,1023,64,2014-08-01T16:40:00,0,20793697,201775
OK,64,45,1023,64,2014-08-01T16:45:00,0,20794146,201775
OK,64,45,1023,64,2014-08-01T16:50:00,0,20794595,201775
OK,64,45,1023,64,2014-08-01T16:55:00,0,20795044,201775
OK,64,45,1023,64,2014-08-01T17:00:00,0,20795493,201775
OK,64,45,1023,64,2014-08-01T17:05:00,0,20795942,201775
OK,64,45,1023,64,2014-08-01T17:10:00,0,20796391,201775
OK,64,45,1023,64,2014-08-01T17:15:00,0,20796840,201775
OK,96,30,1023,96,2014-08-01T17:20:00,1,20797289,201775
OK,96,30,1023,96,2014-08-01T17:25:00,1,20797738,201775
OK,96,30,1023,96,2014-08-01T17:30:00,0,20798187,201775
OK,96,30,1023,96,2014-08-01T17:35:00,0,20798636,201775
OK,94,30,1023,94,2014-08-01T17:40:00,1,20799085,201775
OK,86,33,1023,86,2014-08-01T17:45:00,2,20799534,201775
OK,78,37,1023,78,2014-08-01T17:50:00,0,20799983,201775
OK,78,37,1023,78,2014-08-01T17:55:00,0,20800432,201775
OK,98,29,1023,98,2014-08-01T18:00:00,1,20800881,201775
OK,100,29,1023,100,2014-08-01T18:05:00,1,20801330,201775
OK,100,29,1023,100,2014-08-01T18:10:00,1,20801779,201775
OK,100,29,1023,100,2014-08-01T18:15:00,0,20802228,201775
OK,100,29,1023,100,2014-08-01T18:20:00,0,20802677,201775
OK,100,29,1023,100,2014-08-01T18:25:00,0,20803126,201775
OK,100,29,1023,100,2014-08-01T18:30:00,0,20803575,201775
OK,100,29,1023,100,2014-08-01T18:35:00,0,20804024,201775
OK,100,29,1023,100,2014-08-01T18:40:00,0,20804473,201775
OK,100,29,1023,100,2014-08-01T18:45:00,0,20804922,201775
OK,100,29,1023,100,2014-08-01T18:50:00,0,20805371,201775
OK,100,29,1023,100,2014-08-01T18:55:00,0,20805820,201775
OK,100,29,1023,100,2014-08-01T19:00:00,0,20806269,201775
OK,100,29,1023,100,2014-08-01T19:05:00,0,20806718,201775
OK,87,33,1023,87,2014-08-01T19:10:00,1,20807167,201775
OK,87,33,1023,87,2014-08-01T19:15:00,1,20807616,201775
OK,87,33,1023,87,2014-08-01T19:20:00,0,20808065,201775
OK,87,33,1023,87,2014-08-01T19:25:00,0,20808514,201775
OK,87,33,1023,87,2014-08-01T19:30:00,0,20808963,201775
OK,87,33,1023,87,2014-08-01T19:35:00,0,20809412,201775
OK,87,33,1023,87,2014-08-01T19:40:00,0,20809861,201775
OK,87,33,1023,87,2014-08-01T19:45:00,0,20810310,201775
OK,42,69,1023,42,2014-08-01T19:50:00,1,20810759,201775
OK,42,69,1023,42,2014-08-01T19:55:00,1,20811208,201775
OK,42,69,1023,42,2014-08-01T22:00:00,0,20816937,201775
OK,42,69,1023,42,2014-08-02T00:00:00,0,20823376,201775
OK,42,69,1023,42,2014-08-02T00:05:00,0,20823825,201775
OK,42,69,1023,42,2014-08-02T00:10:00,0,20824274,201775
OK,42,69,1023,42,2014-08-02T00:15:00,0,20824723,201775
OK,42,69,1023,42,2014-08-02T00:20:00,0,20825172,201775
OK,42,69,1023,42,2014-08-02T00:25:00,0,20825621,201775
OK,42,69,1023,42,2014-08-02T00:30:00,0,20826070,201775
OK,42,69,1023,42,2014-08-02T00:35:00,0,20826519,201775
OK,42,69,1023,42,2014-08-02T00:40:00,0,20826968,201775
OK,42,69,1023,42,2014-08-02T00:45:00,0,20827417,201775
OK,42,69,1023,42,2014-08-02T00:50:00,0,20827866,201775
OK,42,69,1023,42,2014-08-02T00:55:00,0,20828315,201775
OK,42,69,1023,42,2014-08-02T01:00:00,0,20828764,201775
OK,42,69,1023,42,2014-08-02T01:05:00,0,20829213,201775
OK,42,69,1023,42,2014-08-02T01:10:00,0,20829662,201775
OK,42,69,1023,42,2014-08-02T01:15:00,0,20830111,201775
OK,42,69,1023,42,2014-08-02T01:20:00,0,20830560,201775
OK,42,69,1023,42,2014-08-02T01:25:00,0,20831009,201775
OK,42,69,1023,42,2014-08-02T01:30:00,0,20831458,201775
OK,42,69,1023,42,2014-08-02T01:35:00,0,20831907,201775
OK,42,69,1023,42,2014-08-02T01:40:00,0,20832356,201775
OK,42,69,1023,42,2014-08-02T01:45:00,0,20832805,201775
OK,42,69,1023,42,2014-08-02T01:50:00,0,20833254,201775
OK,42,69,1023,42,2014-08-02T01:55:00,0,20833703,201775
OK,42,69,1023,42,2014-08-02T02:00:00,0,20834152,201775
OK,42,69,1023,42,2014-08-02T02:05:00,0,20834601,201775
OK,42,69,1023,42,2014-08-02T02:10:00,0,20835050,201775
OK,42,69,1023,42,2014-08-02T02:15:00,0,20835499,201775
OK,42,69,1023,42,2014-08-02T02:20:00,0,20835948,201775
OK,42,69,1023,42,2014-08-02T02:25:00,0,20836397,201775
OK,42,69,1023,42,2014-08-02T02:30:00,0,20836846,201775
OK,42,69,1023,42,2014-08-02T02:35:00,0,20837295,201775
OK,42,69,1023,42,2014-08-02T02:40:00,0,20837744,201775
OK,42,69,1023,42,2014-08-02T02:45:00,0,20838193,201775
OK,42,69,1023,42,2014-08-02T02:50:00,0,20838642,201775
OK,42,69,1023,42,2014-08-02T02:55:00,0,20839091,201775
OK,42,69,1023,42,2014-08-02T03:00:00,0,20839540,201775
OK,42,69,1023,42,2014-08-02T03:05:00,0,20839989,201775
OK,42,69,1023,42,2014-08-02T03:10:00,0,20840438,201775
OK,42,69,1023,42,2014-08-02T03:15:00,0,20840887,201775
OK,42,69,1023,42,2014-08-02T03:20:00,0,20841336,201775
OK,42,69,1023,42,2014-08-02T03:25:00,0,20841785,201775
OK,42,69,1023,42,2014-08-02T03:30:00,0,20842234,201775
OK,42,69,1023,42,2014-08-02T03:35:00,0,20842683,201775
OK,42,69,1023,42,2014-08-02T03:40:00,0,20843132,201775
OK,42,69,1023,42,2014-08-02T03:45:00,0,20843581,201775
OK,42,69,1023,42,2014-08-02T03:50:00,0,20844030,201775
OK,42,69,1023,42,2014-08-02T03:55:00,0,20844479,201775
OK,42,69,1023,42,2014-08-02T06:00:00,0,20851933,201775
OK,42,69,1023,42,2014-08-02T06:05:00,0,20852382,201775
OK,42,69,1023,42,2014-08-02T06:10:00,0,20852831,201775
OK,42,69,1023,42,2014-08-02T06:15:00,0,20853280,201775
OK,42,69,1023,42,2014-08-02T06:20:00,0,20853729,201775
OK,42,69,1023,42,2014-08-02T06:25:00,0,20854178,201775
OK,42,69,1023,42,2014-08-02T06:30:00,0,20854627,201775
OK,42,69,1023,42,2014-08-02T06:35:00,0,20855076,201775
OK,42,69,1023,42,2014-08-02T06:40:00,0,20855525,201775
OK,42,69,1023,42,2014-08-02T06:45:00,0,20855974,201775
OK,42,69,1023,42,2014-08-02T06:50:00,0,20856423,201775
OK,42,69,1023,42,2014-08-02T06:55:00,0,20856872,201775
OK,42,69,1023,42,2014-08-02T07:00:00,0,20857321,201775
OK,42,69,1023,42,2014-08-02T07:05:00,0,20857770,201775
OK,42,69,1023,42,2014-08-02T07:10:00,0,20858219,201775
OK,42,69,1023,42,2014-08-02T07:15:00,0,20858668,201775
OK,42,69,1023,42,2014-08-02T07:20:00,0,20859117,201775
OK,42,69,1023,42,2014-08-02T07:25:00,0,20859566,201775
OK,42,69,1023,42,2014-08-02T07:30:00,0,20860015,201775
OK,42,69,1023,42,2014-08-02T07:35:00,0,20860464,201775
OK,42,69,1023,42,2014-08-02T07:40:00,0,20860913,201775
OK,42,69,1023,42,2014-08-02T07:45:00,0,20861362,201775
OK,42,69,1023,42,2014-08-02T07:50:00,0,20861811,201775
OK,42,69,1023,42,2014-08-02T07:55:00,0,20862260,201775
OK,42,69,1023,42,2014-08-02T08:00:00,0,20862709,201775
OK,42,69,1023,42,2014-08-02T08:05:00,0,20863158,201775
OK,42,69,1023,42,2014-08-02T08:10:00,0,20863607,201775
OK,42,69,1023,42,2014-08-02T08:15:00,0,20864056,201775
OK,42,69,1023,42,2014-08-02T08:20:00,0,20864505,201775
OK,42,69,1023,42,2014-08-02T08:25:00,0,20864954,201775
OK,42,69,1023,42,2014-08-02T08:30:00,0,20865403,201775
OK,42,69,1023,42,2014-08-02T08:35:00,0,20865852,201775
OK,42,69,1023,42,2014-08-02T08:40:00,0,20866301,201775
OK,133,21,1023,133,2014-08-02T08:45:00,0,20866750,201775
OK,133,21,1023,133,2014-08-02T08:50:00,0,20867199,201775
OK,133,21,1023,133,2014-08-02T08:55:00,0,20867648,201775
OK,133,21,1023,133,2014-08-02T09:00:00,0,20868097,201775
OK,139,20,1023,139,2014-08-02T09:05:00,1,20868546,201775
OK,139,20,1023,139,2014-08-02T09:10:00,1,20868995,201775
OK,139,20,1023,139,2014-08-02T09:15:00,0,20869444,201775
OK,139,20,1023,139,2014-08-02T09:20:00,0,20869893,201775
OK,139,20,1023,139,2014-08-02T09:25:00,0,20870342,201775
OK,139,20,1023,139,2014-08-02T09:30:00,0,20870791,201775
OK,139,20,1023,139,2014-08-02T09:35:00,0,20871240,201775
OK,65,44,1023,65,2014-08-02T09:40:00,1,20871689,201775
OK,65,44,1023,65,2014-08-02T09:45:00,0,20872138,201775
OK,65,44,1023,65,2014-08-02T09:50:00,0,20872587,201775
OK,100,29,1023,100,2014-08-02T09:55:00,1,20873036,201775
OK,100,29,1023,100,2014-08-02T10:00:00,1,20873485,201775
OK,100,29,1023,100,2014-08-02T10:05:00,0,20873934,201775
OK,100,29,1023,100,2014-08-02T10:10:00,0,20874383,201775
OK,70,41,1023,70,2014-08-02T10:15:00,1,20874832,201775
OK,70,41,1023,70,2014-08-02T10:20:00,1,20875281,201775
OK,70,41,1023,70,2014-08-02T10:25:00,0,20875730,201775
OK,70,41,1023,70,2014-08-02T10:30:00,0,20876179,201775
OK,70,41,1023,70,2014-08-02T10:35:00,0,20876628,201775
OK,70,41,1023,70,2014-08-02T10:40:00,0,20877077,201775
OK,79,36,1023,79,2014-08-02T10:45:00,1,20877526,201775
OK,79,36,1023,79,2014-08-02T10:50:00,1,20877975,201775
OK,114,25,1023,114,2014-08-02T10:55:00,2,20878424,201775
OK,103,28,1023,103,2014-08-02T11:00:00,1,20878873,201775
OK,103,28,1023,103,2014-08-02T11:05:00,0,20879322,201775
OK,103,28,1023,103,2014-08-02T11:10:00,0,20879771,201775
OK,108,26,1023,108,2014-08-02T11:15:00,1,20880220,201775
OK,108,26,1023,108,2014-08-02T11:20:00,1,20880669,201775
OK,108,26,1023,108,2014-08-02T11:25:00,0,20881118,201775
OK,108,26,1023,108,2014-08-02T11:30:00,0,20881567,201775
OK,45,64,1023,45,2014-08-02T11:35:00,1,20882016,201775
OK,45,64,1023,45,2014-08-02T11:40:00,1,20882465,201775
OK,45,64,1023,45,2014-08-02T11:45:00,0,20882914,201775
OK,45,64,1023,45,2014-08-02T11:50:00,0,20883363,201775
OK,45,64,1023,45,2014-08-02T11:55:00,0,20883812,201775
OK,45,64,1023,45,2014-08-02T12:00:00,0,20884261,201775
OK,45,64,1023,45,2014-08-02T12:05:00,0,20884710,201775
OK,45,64,1023,45,2014-08-02T12:10:00,0,20885159,201775
OK,45,64,1023,45,2014-08-02T12:15:00,0,20885608,201775
OK,45,64,1023,45,2014-08-02T12:20:00,0,20886057,201775
OK,145,20,1023,145,2014-08-02T12:25:00,1,20886506,201775
OK,145,20,1023,145,2014-08-02T12:30:00,1,20886955,201775
OK,145,20,1023,145,2014-08-02T12:35:00,0,20887404,201775
OK,145,20,1023,145,2014-08-02T12:40:00,0,20887853,201775
OK,145,20,1023,145,2014-08-02T12:45:00,0,20888302,201775
OK,145,20,1023,145,2014-08-02T12:50:00,0,20888751,201775
OK,145,20,1023,145,2014-08-02T12:55:00,0,20889200,201775
OK,66,43,1023,66,2014-08-02T13:00:00,1,20889649,201775
OK,66,43,1023,66,2014-08-02T13:05:00,1,20890098,201775
OK,66,43,1023,66,2014-08-02T13:10:00,0,20890547,201775
OK,57,50,1023,57,2014-08-02T13:15:00,1,20890996,201775
OK,57,50,1023,57,2014-08-02T13:20:00,1,20891445,201775
OK,57,50,1023,57,2014-08-02T13:25:00,0,20891894,201775
OK,57,50,1023,57,2014-08-02T13:30:00,0,20892343,201775
OK,57,50,1023,57,2014-08-02T13:35:00,0,20892792,201775
OK,119,24,1023,119,2014-08-02T13:40:00,2,20893241,201775
OK,121,23,1023,121,2014-08-02T13:45:00,1,20893690,201775
OK,121,23,1023,121,2014-08-02T13:50:00,0,20894139,201775
OK,121,23,1023,121,2014-08-02T13:55:00,0,20894588,201775
OK,121,23,1023,121,2014-08-02T14:00:00,0,20895037,201775
OK,121,23,1023,121,2014-08-02T14:05:00,0,20895486,201775
OK,121,23,1023,121,2014-08-02T14:10:00,0,20895935,201775
OK,121,23,1023,121,2014-08-02T14:15:00,0,20896384,201775
OK,121,23,1023,121,2014-08-02T14:20:00,0,20896833,201775
OK,121,23,1023,121,2014-08-02T14:25:00,0,20897282,201775
OK,121,23,1023,121,2014-08-02T14:30:00,0,20897731,201775
OK,104,27,1023,104,2014-08-02T14:35:00,0,20898180,201775
OK,104,27,1023,104,2014-08-02T14:40:00,0,20898629,201775
OK,104,27,1023,104,2014-08-02T14:45:00,0,20899078,201775
OK,104,27,1023,104,2014-08-02T14:50:00,0,20899527,201775
OK,104,27,1023,104,2014-08-02T14:55:00,0,20899976,201775
OK,91,31,1023,91,2014-08-02T15:00:00,1,20900425,201775
OK,91,31,1023,91,2014-08-02T15:05:00,1,20900874,201775
OK,91,31,1023,91,2014-08-02T15:10:00,0,20901323,201775
OK,91,31,1023,91,2014-08-02T15:15:00,0,20901772,201775
OK,91,31,1023,91,2014-08-02T15:20:00,0,20902221,201775
OK,91,31,1023,91,2014-08-02T15:25:00,0,20902670,201775
OK,91,31,1023,91,2014-08-02T15:30:00,0,20903119,201775
OK,91,31,1023,91,2014-08-02T15:35:00,0,20903568,201775
OK,91,31,1023,91,2014-08-02T15:40:00,0,20904017,201775
OK,91,31,1023,91,2014-08-02T15:45:00,0,20904466,201775
OK,129,22,1023,129,2014-08-02T15:50:00,2,20904915,201775
OK,127,22,1023,127,2014-08-02T15:55:00,3,20905364,201775
OK,119,24,1023,119,2014-08-02T16:00:00,1,20905813,201775
OK,129,22,1023,129,2014-08-02T16:05:00,0,20906262,201775
OK,129,22,1023,129,2014-08-02T16:10:00,0,20906711,201775
OK,129,22,1023,129,2014-08-02T16:15:00,0,20907160,201775
OK,129,22,1023,129,2014-08-02T16:20:00,0,20907609,201775
OK,129,22,1023,129,2014-08-02T16:25:00,0,20908058,201775
OK,129,22,1023,129,2014-08-02T16:30:00,0,20908507,201775
OK,129,22,1023,129,2014-08-02T16:35:00,0,20908956,201775
OK,129,22,1023,129,2014-08-02T16:40:00,0,20909405,201775
OK,129,22,1023,129,2014-08-02T16:45:00,0,20909854,201775
OK,129,22,1023,129,2014-08-02T16:50:00,0,20910303,201775
OK,129,22,1023,129,2014-08-02T16:55:00,0,20910752,201775
OK,129,22,1023,129,2014-08-02T17:00:00,0,20911201,201775
OK,35,82,1023,35,2014-08-02T17:05:00,1,20911650,201775
OK,35,82,1023,35,2014-08-02T17:10:00,1,20912099,201775
OK,35,82,1023,35,2014-08-02T17:15:00,0,20912548,201775
OK,35,82,1023,35,2014-08-02T17:20:00,0,20912997,201775
OK,35,82,1023,35,2014-08-02T17:25:00,0,20913446,201775
OK,35,82,1023,35,2014-08-02T17:30:00,0,20913895,201775
OK,35,82,1023,35,2014-08-02T17:35:00,0,20914344,201775
OK,35,82,1023,35,2014-08-02T17:40:00,0,20914793,201775
OK,35,82,1023,35,2014-08-02T17:45:00,0,20915242,201775
OK,60,48,1023,60,2014-08-02T17:50:00,1,20915691,201775
OK,60,48,1023,60,2014-08-02T17:55:00,1,20916140,201775
OK,60,48,1023,60,2014-08-02T18:00:00,0,20916589,201775
OK,60,48,1023,60,2014-08-02T18:05:00,0,20917038,201775
OK,60,48,1023,60,2014-08-02T18:10:00,0,20917487,201775
OK,60,48,1023,60,2014-08-02T18:15:00,0,20917936,201775
OK,60,48,1023,60,2014-08-02T18:20:00,0,20918385,201775
OK,60,48,1023,60,2014-08-02T18:25:00,0,20918834,201775
OK,60,48,1023,60,2014-08-02T18:30:00,0,20919283,201775
OK,60,48,1023,60,2014-08-02T18:35:00,0,20919732,201775
OK,60,48,1023,60,2014-08-02T18:40:00,0,20920181,201775
OK,60,48,1023,60,2014-08-02T18:45:00,0,20920630,201775
OK,60,48,1023,60,2014-08-02T18:50:00,0,20921079,201775
OK,60,48,1023,60,2014-08-02T18:55:00,0,20921528,201775
OK,60,48,1023,60,2014-08-02T19:00:00,0,20921977,201775
OK,60,48,1023,60,2014-08-02T19:05:00,0,20922426,201775
OK,105,27,1023,105,2014-08-02T19:10:00,1,20922875,201775
OK,77,37,1023,77,2014-08-02T19:15:00,3,20923324,201775
OK,76,38,1023,76,2014-08-02T19:20:00,0,20923773,201775
OK,76,38,1023,76,2014-08-02T19:25:00,0,20924222,201775
OK,76,38,1023,76,2014-08-02T19:30:00,0,20924671,201775
OK,76,38,1023,76,2014-08-02T19:35:00,0,20925120,201775
OK,76,38,1023,76,2014-08-02T19:40:00,0,20925569,201775
OK,76,38,1023,76,2014-08-02T19:45:00,0,20926018,201775
OK,76,38,1023,76,2014-08-02T19:50:00,0,20926467,201775
OK,76,38,1023,76,2014-08-02T19:55:00,0,20926916,201775
OK,76,38,1023,76,2014-08-02T20:00:00,0,20927365,201775
OK,76,38,1023,76,2014-08-02T20:05:00,0,20927814,201775
OK,76,38,1023,76,2014-08-02T20:10:00,0,20928263,201775
OK,76,38,1023,76,2014-08-02T20:15:00,0,20928712,201775
OK,76,38,1023,76,2014-08-02T20:20:00,0,20929161,201775
OK,76,38,1023,76,2014-08-02T20:25:00,0,20929610,201775
OK,76,38,1023,76,2014-08-02T20:30:00,0,20930059,201775
OK,76,38,1023,76,2014-08-02T20:35:00,0,20930508,201775
OK,76,38,1023,76,2014-08-02T20:40:00,0,20930957,201775
OK,76,38,1023,76,2014-08-02T20:45:00,0,20931406,201775
OK,76,38,1023,76,2014-08-02T20:50:00,0,20931855,201775
OK,43,67,1023,43,2014-08-02T20:55:00,1,20932304,201775
OK,43,67,1023,43,2014-08-02T21:00:00,1,20932753,201775
OK,43,67,1023,43,2014-08-02T21:05:00,0,20933202,201775
OK,91,31,1023,91,2014-08-02T21:10:00,1,20933651,201775
OK,91,31,1023,91,2014-08-02T21:15:00,1,20934100,201775
OK,91,31,1023,91,2014-08-02T21:20:00,0,20934549,201775
OK,91,31,1023,91,2014-08-02T21:25:00,0,20934998,201775
OK,91,31,1023,91,2014-08-02T21:30:00,0,20935447,201775
OK,91,31,1023,91,2014-08-02T21:35:00,0,20935896,201775
OK,91,31,1023,91,2014-08-02T21:40:00,0,20936345,201775
OK,91,31,1023,91,2014-08-02T21:45:00,0,20936794,201775
OK,91,31,1023,91,2014-08-02T21:50:00,0,20937243,201775
OK,123,23,1023,123,2014-08-02T21:55:00,1,20937692,201775
OK,123,23,1023,123,2014-08-02T22:00:00,0,20938141,201775
OK,123,23,1023,123,2014-08-02T22:05:00,0,20938590,201775
OK,123,23,1023,123,2014-08-02T22:10:00,0,20939039,201775
OK,123,23,1023,123,2014-08-02T22:15:00,0,20939488,201775
OK,123,23,1023,123,2014-08-02T22:20:00,0,20939937,201775
OK,123,23,1023,123,2014-08-02T22:25:00,0,20940386,201775
OK,123,23,1023,123,2014-08-02T22:30:00,0,20940835,201775
OK,123,23,1023,123,2014-08-02T22:35:00,0,20941284,201775
OK,123,23,1023,123,2014-08-02T22:40:00,0,20941733,201775
OK,123,23,1023,123,2014-08-02T22:45:00,0,20942182,201775
OK,123,23,1023,123,2014-08-02T22:50:00,0,20942631,201775
OK,123,23,1023,123,2014-08-02T22:55:00,0,20943080,201775
OK,123,23,1023,123,2014-08-02T23:00:00,0,20943529,201775
OK,123,23,1023,123,2014-08-02T23:10:00,0,20943978,201775
OK,123,23,1023,123,2014-08-02T23:15:00,0,20944427,201775
OK,123,23,1023,123,2014-08-02T23:20:00,0,20944876,201775
OK,123,23,1023,123,2014-08-02T23:25:00,0,20945325,201775
OK,123,23,1023,123,2014-08-02T23:30:00,0,20945774,201775
OK,123,23,1023,123,2014-08-02T23:35:00,0,20946223,201775
OK,123,23,1023,123,2014-08-02T23:40:00,0,20946672,201775
OK,123,23,1023,123,2014-08-02T23:45:00,0,20947121,201775
OK,123,23,1023,123,2014-08-02T23:50:00,0,20947570,201775
OK,123,23,1023,123,2014-08-02T23:55:00,0,20948019,201775
OK,123,23,1023,123,2014-08-03T00:00:00,0,20948468,201775
OK,123,23,1023,123,2014-08-03T00:05:00,0,20948917,201775
OK,123,23,1023,123,2014-08-03T00:10:00,0,20949365,201775
OK,123,23,1023,123,2014-08-03T00:15:00,0,20949814,201775
OK,123,23,1023,123,2014-08-03T00:20:00,0,20950263,201775
OK,123,23,1023,123,2014-08-03T00:25:00,0,20950712,201775
OK,123,23,1023,123,2014-08-03T00:30:00,0,20951161,201775
OK,123,23,1023,123,2014-08-03T00:35:00,0,20951610,201775
OK,123,23,1023,123,2014-08-03T00:40:00,0,20952059,201775
OK,123,23,1023,123,2014-08-03T00:45:00,0,20952508,201775
OK,123,23,1023,123,2014-08-03T00:50:00,0,20952957,201775
OK,123,23,1023,123,2014-08-03T00:55:00,0,20953406,201775
OK,123,23,1023,123,2014-08-03T01:00:00,0,20953855,201775
OK,123,23,1023,123,2014-08-03T01:05:00,0,20954304,201775
OK,123,23,1023,123,2014-08-03T01:10:00,0,20954753,201775
OK,83,34,1023,83,2014-08-03T01:15:00,1,20955202,201775
OK,83,34,1023,83,2014-08-03T01:20:00,0,20955651,201775
OK,83,34,1023,83,2014-08-03T01:25:00,0,20956100,201775
OK,83,34,1023,83,2014-08-03T01:30:00,0,20956549,201775
OK,83,34,1023,83,2014-08-03T01:35:00,0,20956998,201775
OK,83,34,1023,83,2014-08-03T01:40:00,0,20957447,201775
OK,83,34,1023,83,2014-08-03T01:45:00,0,20957896,201775
OK,83,34,1023,83,2014-08-03T01:50:00,0,20958345,201775
OK,83,34,1023,83,2014-08-03T01:55:00,0,20958794,201775
OK,83,34,1023,83,2014-08-03T02:00:00,0,20959243,201775
OK,83,34,1023,83,2014-08-03T02:05:00,0,20959692,201775
OK,83,34,1023,83,2014-08-03T02:10:00,0,20960141,201775
OK,83,34,1023,83,2014-08-03T02:15:00,0,20960590,201775
OK,83,34,1023,83,2014-08-03T02:20:00,0,20961039,201775